GFSMA_sfc_temp_114.txt.gz
Temp
82 82 82 81 81 81 81 80 80 80 81 82 83 83 83 83 83 81 78 73 74 75 75 75 75 74 74 73 73 73 72 72 72 72 72 72 72 72 73 73 74 74 75
82 81 80 80 80 81 81 81 80 80 79 81 80 81 80 81 80 80 79 76 73 74 75 75 75 74 74 73 73 72 72 72 72 71 71 71 72 72 71 72 72 73 74
81 80 80 80 80 81 82 81 81 80 79 79 79 79 79 80 79 78 78 78 75 70 72 73 74 74 74 74 73 72 72 71 71 71 71 71 71 71 71 71 71 72 72
81 80 79 79 80 80 79 78 77 77 77 77 77 78 78 78 79 78 77 77 76 77 70 69 71 72 73 73 73 72 72 71 71 71 71 70 70 70 70 70 70 71 71
80 79 78 77 78 77 78 77 77 77 76 76 76 77 78 77 77 78 77 74 72 74 75 66 67 68 70 71 72 72 72 71 71 71 71 70 70 70 69 69 69 70 70
77 77 78 77 77 75 76 76 76 77 77 76 76 75 76 76 76 77 77 77 74 72 74 73 74 70 67 68 69 70 70 70 70 70 70 70 70 70 69 69 69 69 69
71 65 74 73 75 75 75 76 76 73 72 76 73 72 73 77 76 74 75 76 72 73 73 73 75 75 72 66 66 67 68 69 69 69 69 70 70 70 70 69 68 68 68
70 71 68 70 75 75 74 74 72 72 72 73 72 72 67 69 71 72 73 73 73 73 72 73 74 73 72 72 65 63 64 66 67 68 68 68 69 69 70 69 69 68 68
69 62 64 69 74 72 71 71 71 70 68 68 70 70 64 64 69 71 71 72 72 72 73 73 73 72 71 71 67 66 62 64 65 66 66 67 67 68 68 69 69 68 67
57 58 60 63 66 65 65 67 68 69 68 67 69 70 72 72 66 64 69 70 70 71 70 70 70 70 70 69 65 61 61 62 63 64 65 65 66 66 66 67 68 68 67
56 56 56 56 55 59 64 67 69 70 69 69 66 67 67 69 72 67 64 65 66 66 69 69 68 68 69 68 67 65 59 61 61 62 63 63 64 64 65 66 67 68 68
55 57 56 55 55 57 62 64 66 68 70 70 70 70 68 66 67 64 61 64 65 67 67 67 67 67 67 66 65 59 59 60 60 61 61 62 62 63 64 64 65 66 68
54 55 55 54 56 61 63 64 66 66 69 68 69 68 68 66 66 66 66 64 61 65 64 67 68 67 67 67 66 58 60 59 59 60 60 60 61 61 62 63 64 65 66
56 57 57 58 62 63 62 63 62 61 63 64 63 64 64 66 65 65 62 61 58 61 62 61 68 66 67 66 63 57 62 60 59 58 59 59 60 60 61 61 62 63 64
55 56 58 61 60 59 58 57 61 62 63 64 64 63 64 63 63 64 64 62 59 54 58 64 61 66 65 65 63 63 62 60 59 58 58 58 59 59 60 60 61 61 62
55 53 53 53 53 52 53 53 55 60 61 60 62 62 62 62 61 61 62 61 60 57 53 62 61 62 63 62 62 61 61 58 57 57 57 56 57 58 58 59 59 60 60
53 52 50 49 50 54 56 57 61 61 60 59 59 60 60 60 61 60 60 59 58 57 52 57 60 61 59 58 59 60 60 60 60 58 56 56 56 56 57 57 58 58 59
57 57 56 58 58 59 61 62 61 60 59 59 59 58 58 59 57 59 58 57 57 58 53 50 56 56 56 57 57 56 57 59 59 58 56 55 54 54 55 55 56 57 57
60 60 61 60 60 60 60 62 62 61 61 60 58 57 58 59 58 59 57 56 57 56 55 52 51 55 55 56 55 56 56 57 59 56 55 54 54 54 54 54 55 56 56
61 61 60 60 59 60 59 60 60 60 59 59 60 59 59 58 57 57 57 56 56 54 54 51 45 47 51 55 55 50 49 52 51 54 55 55 54 54 54 54 55 55 54
60 60 59 59 58 58 59 58 58 57 58 58 58 58 57 57 55 55 55 55 54 49 46 43 43 45 49 50 46 50 48 51 50 51 52 55 55 56 57 55 54 53 52
58 58 57 57 56 57 52 53 54 57 57 56 55 56 57 55 54 53 53 54 52 45 44 44 44 44 47 46 48 48 46 46 42 54 51 52 53 54 56 57 55 53 52
57 56 56 55 55 55 50 51 52 55 53 54 53 53 53 54 53 53 53 52 52 52 52 51 48 49 46 48 48 47 46 45 45 50 49 45 50 50 53 56 54 52 52
55 54 55 54 53 53 48 49 50 53 53 53 52 52 51 51 52 51 51 50 51 52 50 50 48 49 51 53 51 51 50 49 49 48 46 39 47 49 52 53 54 53 52
54 53 53 51 51 52 47 47 48 51 51 50 52 51 51 50 50 50 46 46 46 47 51 52 52 52 52 51 50 45 42 39 37 39 48 43 48 47 51 53 55 54 53
52 52 51 52 48 49 48 47 47 49 48 49 50 49 48 48 48 48 46 44 43 46 48 49 49 48 48 48 50 49 47 39 40 40 47 45 46 45 42 52 53 54 53

GFSMA_sfc_temp_117.txt.gz
Temp
84 84 84 82 82 82 82 81 81 81 83 84 84 84 83 83 81 77 75 73 74 75 75 75 75 74 74 73 73 73 73 73 72 72 72 72 72 72 72 73 73 74 74
84 83 82 81 81 82 82 82 81 81 81 82 81 82 82 81 80 77 76 73 73 74 75 75 75 75 74 74 73 73 72 72 72 72 72 72 72 71 71 72 72 73 73
84 83 82 80 81 83 83 83 82 82 80 80 80 80 80 80 79 78 76 74 73 70 73 74 74 74 74 74 73 72 72 72 72 72 71 71 71 71 71 71 71 71 72
83 81 81 80 81 81 81 80 79 78 78 78 78 78 78 79 79 78 77 76 75 73 69 70 72 73 73 73 73 72 72 72 71 71 71 71 70 70 70 70 70 70 71
82 81 80 80 81 79 79 78 77 78 76 76 77 77 78 77 77 78 76 74 72 74 71 68 68 69 71 72 72 72 71 71 71 71 71 71 71 70 70 69 69 70 70
81 80 79 79 79 76 77 77 76 77 77 76 78 76 76 76 76 77 77 77 73 72 73 72 68 68 69 69 70 71 71 71 70 70 70 70 70 70 70 70 69 69 69
79 79 78 77 77 75 75 76 76 75 75 77 73 72 73 77 76 75 76 75 73 72 72 72 72 72 67 67 67 67 68 69 69 69 69 69 69 69 70 70 69 69 68
75 74 72 73 69 74 75 75 74 72 73 75 71 70 65 69 73 75 74 74 74 72 72 73 73 72 71 68 64 64 64 66 67 67 68 68 68 68 68 69 69 69 68
71 72 73 72 73 74 73 73 72 71 66 70 73 69 64 62 67 70 71 71 73 72 72 72 73 71 71 69 65 63 63 63 64 65 66 66 67 67 67 67 68 69 68
66 66 64 62 63 61 64 67 67 67 66 63 66 71 71 70 65 61 69 70 71 72 71 70 71 70 69 67 64 61 61 62 62 63 64 65 65 65 66 66 67 67 68
59 58 58 57 56 56 57 59 62 64 65 65 65 66 65 66 68 63 61 63 68 69 70 69 67 66 68 67 65 63 60 61 61 62 62 63 64 64 65 65 66 66 67
55 56 56 55 54 55 56 59 61 62 64 65 65 66 64 62 62 63 61 64 64 66 66 64 64 65 65 66 66 60 60 60 60 61 61 62 62 63 63 64 64 65 66
54 54 55 54 54 54 56 58 60 62 65 65 66 65 65 65 65 65 64 62 61 65 62 66 66 66 67 66 65 59 61 61 60 60 60 60 61 61 62 62 63 64 64
55 55 55 55 56 57 59 60 60 62 64 63 63 63 63 63 64 63 61 58 56 59 62 61 64 66 65 65 60 58 61 61 61 60 60 59 60 60 61 61 62 62 63
57 57 58 58 59 59 59 60 62 63 63 64 64 64 63 64 63 63 62 61 56 51 54 62 61 65 64 64 63 62 61 61 61 60 59 58 58 59 60 60 61 61 61
55 55 53 54 53 54 55 58 56 57 57 56 58 60 62 63 61 60 59 59 59 55 50 59 60 63 63 63 62 61 60 60 60 59 58 57 57 57 58 58 59 59 60
54 53 52 51 50 51 51 52 53 55 56 57 58 60 60 61 59 60 59 57 56 56 51 55 59 61 60 59 60 59 59 58 58 60 59 58 57 57 57 57 57 58 58
53 52 51 50 50 50 52 56 58 61 61 60 60 59 58 60 57 57 57 56 56 57 53 50 55 55 55 57 57 56 56 59 57 59 59 58 57 56 55 55 56 56 57
60 61 61 60 61 61 62 62 62 62 62 61 60 57 57 56 56 56 57 57 55 56 55 52 51 55 54 55 53 55 55 56 57 58 57 57 56 55 55 55 55 55 55
62 61 61 61 61 61 61 60 60 60 60 60 60 59 59 58 57 57 57 56 56 54 54 52 51 50 50 51 51 50 49 51 50 54 55 55 56 56 56 55 55 55 54
61 61 60 60 60 59 57 56 58 58 58 58 59 59 59 58 57 56 54 52 52 51 50 47 45 44 45 46 47 49 47 47 50 50 48 50 51 51 52 56 55 55 54
59 59 58 58 57 58 52 53 53 54 56 56 55 56 56 56 56 56 55 55 53 49 47 45 44 43 45 47 48 48 46 43 41 52 48 47 51 49 51 53 56 55 53
58 57 57 57 56 55 51 51 51 53 53 54 53 53 53 55 54 53 54 54 54 54 53 50 46 47 47 50 49 47 46 45 44 48 48 44 49 47 51 54 55 55 53
56 55 55 54 54 52 49 49 49 51 52 53 53 52 51 51 52 51 50 49 50 51 51 52 50 49 49 51 49 49 48 47 47 49 47 38 46 45 50 52 54 54 54
55 54 54 53 52 52 50 49 48 49 50 50 52 52 51 49 50 51 46 44 45 46 51 52 52 52 53 53 51 45 42 40 38 39 44 41 43 45 47 49 52 54 53
52 53 52 53 52 51 51 49 48 48 47 48 48 49 48 48 49 49 45 43 42 45 47 48 48 49 50 50 50 48 46 41 41 38 44 42 44 44 40 48 49 51 50

GFSMA_sfc_temp_123.txt.gz
Temp
69 67 65 63 62 61 61 61 61 64 66 67 69 67 64 62 60 61 62 73 74 75 75 75 75 74 74 74 73 73 73 73 73 72 72 72 72 72 72 72 72 72 73
69 68 67 64 62 62 62 63 64 63 63 69 67 67 64 63 60 61 61 64 73 74 75 75 75 74 74 73 73 73 72 72 72 72 72 71 71 71 71 71 71 71 71
68 66 66 64 64 64 65 64 62 63 63 65 61 63 63 60 61 60 60 60 62 71 73 74 74 74 74 73 73 72 72 72 72 72 71 71 71 71 70 70 71 71 71
68 66 66 64 63 63 62 62 61 61 60 60 59 61 62 61 59 59 60 59 59 61 67 72 73 74 73 73 73 72 72 71 71 71 71 71 71 71 70 70 70 70 70
68 67 65 63 63 62 61 63 60 61 58 58 61 58 58 58 59 63 58 58 58 57 58 70 71 72 73 73 72 72 71 71 70 70 70 70 70 70 70 70 70 69 69
66 65 63 63 62 61 60 61 61 59 58 59 67 61 57 57 57 57 58 61 58 57 57 58 57 62 71 71 71 71 71 70 70 69 69 69 69 69 69 69 70 69 69
65 63 61 62 62 62 62 63 60 60 57 56 56 55 55 56 57 57 56 56 58 58 56 56 55 55 60 69 69 69 69 69 69 69 68 68 68 68 68 68 68 69 69
64 64 62 62 63 61 63 63 62 57 56 55 54 51 50 55 55 56 54 58 56 57 58 58 55 55 55 54 58 65 66 67 67 67 67 67 67 67 67 67 67 68 68
64 62 62 62 62 61 62 62 62 61 56 55 58 55 50 50 49 54 54 55 55 54 55 57 56 56 54 53 58 60 64 64 65 66 66 66 66 66 66 66 67 67 67
58 59 60 60 60 60 61 61 62 61 60 58 58 62 60 58 51 51 53 56 55 57 56 55 55 55 54 53 57 59 63 63 63 63 64 65 65 65 66 66 66 66 66
56 56 57 57 58 59 61 62 60 59 59 58 57 58 57 55 53 49 48 52 53 53 54 55 53 53 54 53 53 58 63 62 62 62 62 63 64 64 64 65 65 65 65
53 55 55 54 54 55 57 58 58 58 58 59 58 57 56 55 51 49 47 49 49 52 51 52 54 53 53 53 58 61 62 62 61 61 62 62 62 62 63 64 64 64 64
53 53 54 53 53 53 54 54 55 56 57 57 57 56 56 55 53 51 50 47 47 49 50 51 52 52 56 52 54 60 62 62 61 62 62 62 62 62 61 62 62 63 64
53 54 54 54 54 55 54 54 53 53 56 56 57 56 53 51 52 53 51 47 44 45 47 48 52 51 52 53 54 61 55 62 62 62 62 62 61 61 61 61 61 62 62
54 54 54 54 54 54 54 54 53 55 56 56 55 55 54 53 51 50 49 49 46 43 45 49 51 55 54 53 56 54 50 57 61 61 61 60 60 61 60 60 60 60 61
55 54 54 54 54 54 55 54 53 54 55 53 54 54 53 51 51 51 50 51 51 47 44 47 50 52 55 55 54 48 48 56 58 59 59 59 59 60 60 60 59 59 59
54 53 53 52 52 52 53 53 53 54 54 53 54 54 53 54 51 52 51 50 47 47 43 44 45 46 45 44 45 45 47 46 46 57 59 59 59 59 59 59 59 58 58
53 53 53 52 52 52 52 52 52 54 54 53 54 53 53 55 51 51 46 45 43 43 40 37 39 41 42 43 42 42 48 52 46 54 57 58 58 58 57 58 57 56 56
53 53 53 53 53 53 53 54 54 53 52 52 51 51 48 47 44 43 42 40 40 45 39 37 37 38 39 39 40 41 43 46 49 55 57 57 57 57 57 56 56 56 55
50 49 49 49 48 48 48 48 48 46 46 47 48 48 47 45 43 42 43 41 42 39 38 37 37 37 38 40 39 39 41 39 41 49 51 54 56 56 57 56 56 55 54
48 49 48 47 47 49 51 44 44 43 43 43 45 46 46 52 55 52 47 42 41 39 37 36 35 36 36 36 36 38 37 38 39 40 40 41 45 48 48 53 54 55 55
46 46 44 44 44 50 53 52 45 41 42 42 41 42 44 48 49 53 53 54 50 41 41 40 40 38 35 36 36 36 37 36 34 40 38 40 41 40 42 44 52 54 55
42 41 42 41 41 43 52 51 50 41 39 39 39 40 43 46 43 42 47 49 47 50 50 42 36 37 36 37 37 35 35 34 37 40 38 37 42 38 41 47 51 53 54
40 40 40 39 40 46 51 50 48 38 38 38 39 39 38 38 41 44 41 39 39 40 42 44 39 40 40 41 42 44 43 42 41 41 42 37 42 40 41 42 49 51 52
39 39 39 38 38 39 50 49 43 38 38 37 40 39 39 38 47 50 41 40 38 38 47 50 50 51 51 50 48 42 39 39 38 39 39 40 38 40 44 42 43 49 51
40 41 40 38 46 38 50 49 42 38 35 37 37 38 45 44 49 50 44 42 40 40 40 42 42 43 44 41 47 41 39 37 37 35 37 38 40 40 37 37 38 40 40

GFSMA_sfc_temp_129.txt.gz
Temp
63 61 60 58 58 59 59 59 60 61 60 59 59 58 58 58 59 61 63 73 74 75 75 75 75 74 74 74 73 73 73 73 73 73 72 72 72 72 72 71 72 72 73
64 61 58 58 58 58 59 59 63 62 59 59 59 58 57 58 58 59 60 65 73 74 75 75 74 74 74 73 73 73 72 72 72 72 72 72 71 71 71 71 71 71 71
65 61 58 57 57 58 59 59 59 61 59 60 56 57 58 56 57 58 59 59 62 72 73 74 74 74 74 73 72 72 72 72 71 71 71 71 71 71 71 70 70 70 70
67 63 60 58 57 58 58 60 61 59 56 57 54 56 56 57 57 57 58 58 58 60 67 72 73 73 73 73 72 72 71 71 71 71 71 70 70 70 70 70 70 70 70
68 66 62 58 58 57 57 61 56 60 56 54 56 54 55 56 56 59 56 57 58 58 58 69 71 72 72 72 72 71 71 71 70 70 70 70 70 69 69 69 69 70 69
68 65 60 59 58 56 56 56 58 55 57 57 62 55 53 53 54 54 55 58 56 57 57 57 57 61 71 72 72 71 71 70 70 69 69 69 69 69 69 68 69 69 69
66 64 59 58 57 59 58 58 55 57 54 55 54 53 54 53 52 52 52 53 54 54 54 54 55 55 60 70 70 70 70 70 69 69 69 68 68 68 68 68 68 68 68
65 63 61 58 58 56 57 58 58 54 53 53 52 51 50 54 52 53 50 53 52 53 53 54 53 53 53 54 58 67 67 68 68 68 68 68 68 67 67 67 67 67 67
59 61 60 59 58 59 58 57 57 56 52 52 54 53 49 49 48 49 49 50 51 50 51 52 53 53 52 52 58 61 65 66 67 67 67 67 67 67 67 66 66 67 66
56 55 60 59 59 57 59 57 58 56 55 53 55 60 58 56 53 50 50 50 54 55 53 50 52 52 52 52 57 59 64 64 64 65 65 66 66 66 66 66 66 66 66
55 56 57 57 57 55 56 58 56 56 56 55 54 56 56 55 55 54 51 53 54 54 54 52 52 51 51 51 52 55 63 63 63 63 63 64 64 64 65 65 65 65 65
53 54 55 53 53 55 58 58 59 59 58 57 57 56 55 54 53 52 51 51 51 52 49 47 48 48 50 50 55 59 62 63 62 62 62 63 63 64 64 64 64 64 64
52 52 53 53 53 54 55 57 58 58 58 58 57 55 56 55 55 54 53 50 50 50 48 46 47 48 52 49 50 58 60 63 62 62 62 62 62 62 62 63 64 64 64
53 54 54 54 55 55 55 54 54 54 56 56 55 55 54 55 55 55 54 51 47 47 44 46 47 47 49 49 52 61 55 62 62 62 62 61 61 61 61 62 62 62 63
54 53 54 54 54 55 55 54 54 54 55 55 55 55 54 53 53 53 53 51 46 41 44 49 45 47 50 52 55 55 53 57 60 60 60 60 60 60 60 61 61 61 61
54 53 53 53 54 54 54 54 54 54 54 54 54 54 53 52 52 51 49 49 50 48 46 46 46 47 48 52 52 46 48 56 58 59 59 58 58 59 59 60 60 59 59
52 53 53 53 53 53 53 53 53 53 53 53 53 53 52 52 50 50 50 49 47 47 43 41 40 40 41 42 43 42 43 43 43 54 57 57 58 58 59 58 58 58 58
53 53 53 52 52 52 52 52 53 54 53 52 53 52 51 54 49 49 47 46 42 38 39 37 36 38 39 39 39 39 44 48 43 52 55 56 57 58 58 57 57 57 57
53 54 53 52 52 52 52 52 53 52 52 52 51 51 49 48 45 43 41 39 38 41 37 36 36 36 37 37 37 38 39 39 45 51 54 54 55 56 55 56 56 55 55
51 50 50 49 48 47 48 47 47 44 45 46 45 45 44 43 41 39 40 38 39 37 36 35 34 34 34 36 35 35 35 36 37 45 48 51 53 54 54 54 54 54 54
46 47 46 45 45 46 46 41 41 41 41 40 42 43 44 46 51 46 42 38 38 35 34 34 33 33 33 33 34 34 33 35 36 36 36 38 39 40 42 48 49 51 52
41 43 42 43 43 49 51 49 43 39 40 40 40 40 42 45 49 53 53 50 42 37 34 33 33 32 32 32 33 32 32 32 34 36 34 38 37 37 38 39 47 50 52
38 38 39 40 41 43 51 49 46 38 37 36 36 38 41 44 43 40 47 48 47 49 48 36 33 32 32 34 33 33 38 38 37 38 35 36 36 38 40 44 48 49 51
37 36 37 38 39 45 50 48 45 35 35 35 36 36 36 36 38 41 38 37 37 38 39 41 37 40 40 40 40 41 40 39 35 36 37 36 39 39 39 40 46 48 49
35 35 36 37 37 38 49 47 40 35 35 34 36 36 36 36 44 50 39 38 40 42 46 48 48 48 48 47 46 37 33 35 35 37 35 37 40 39 36 38 39 46 47
37 37 36 35 43 37 49 47 40 36 33 35 35 36 44 42 48 49 43 41 39 39 41 38 36 36 38 37 44 35 33 34 33 33 39 35 37 38 35 40 36 40 41